tititudorancea.com
Station Historical Data
Daily Summary for June 7, 2018 Units:  Metric    English   Both
« Previous Day
Next Day »
Daily Weekly Monthly Yearly Custom
  High: Low: Average:
Temperature: -17.8 °C 10.9 °C 12.8 °C
Dew Point: -17.8 °C 6.5 °C 6.9 °C
Humidity: Humidity % 59 % 68 %
Wind Speed: 0 km/h 9.3 km/h 25.3 km/h
Wind Gust: 0 km/h - -
Wind:- - SSE
Pressure: 0 hPa 1015.8 hPa -
Precipitation: 0 mm    
Historical Graphs
 
 
Ararat weather Find more about Weather in Ararat, AU


 



 


Tabular Data for June 7, 2018
Time Temperature Dew Point Pressure Wind Wind Speed Wind Gust Humidity Rainfall Rate (Hourly)
-17.8 °C -17.8 °C 0 hPa Calm     Humidity % 0 mm
00:04 12.2 °C 6.8 °C 1023.6 hPa North 31.5 km/h 22.5 km/h 70 % 0 mm
00:09 12.2 °C 6.9 °C 1023.6 hPa NNE 25.9 km/h 22.5 km/h 70 % 0 mm
00:14 12.2 °C 6.9 °C 1023.6 hPa NNE 22.2 km/h 12.7 km/h 70 % 0 mm
00:19 12.2 °C 6.9 °C 1023.6 hPa NNE 29.6 km/h 20.3 km/h 70 % 0 mm
00:24 12.3 °C 6.9 °C 1023.6 hPa NNE 22.2 km/h 14.3 km/h 70 % 0 mm
00:29 12.3 °C 7 °C 1023.6 hPa NNE 29.6 km/h 16.3 km/h 70 % 0 mm
00:34 12.4 °C 6.9 °C 1023.2 hPa North 31.5 km/h 12.9 km/h 69 % 0 mm
00:39 12.4 °C 6.9 °C 1023.2 hPa NNE 31.5 km/h 20.3 km/h 69 % 0 mm
00:44 12.5 °C 6.9 °C 1023.2 hPa NNE 22.2 km/h 13.5 km/h 69 % 0 mm
00:49 12.5 °C 6.9 °C 1023.2 hPa NNE 20.4 km/h 14.6 km/h 69 % 0 mm
00:54 12.4 °C 6.9 °C 1023.2 hPa NNE 27.4 km/h 19.2 km/h 69 % 0 mm
00:59 12.4 °C 6.9 °C 1022.9 hPa NNE 27.8 km/h 15.8 km/h 69 % 0 mm
01:04 12.3 °C 6.8 °C 1022.9 hPa NNE 29.6 km/h 23.2 km/h 69 % 0 mm
01:09 12.2 °C 6.9 °C 1022.9 hPa NNE 24.1 km/h 19.6 km/h 70 % 0 mm
01:14 12.1 °C 6.8 °C 1022.6 hPa NNE 31.5 km/h 21.7 km/h 70 % 0 mm
01:19 12.1 °C 6.8 °C 1022.6 hPa North 31.5 km/h 13.8 km/h 70 % 0 mm
01:24 12.1 °C 6.9 °C 1022.9 hPa NNE 31.5 km/h 18.2 km/h 71 % 0 mm
01:29 12.1 °C 7 °C 1022.9 hPa North 24.1 km/h 18.5 km/h 71 % 0 mm
01:34 12.1 °C 7 °C 1022.9 hPa North 27.8 km/h 17.4 km/h 71 % 0 mm
01:39 12.1 °C 6.8 °C 1022.9 hPa NNE 22.2 km/h 17.7 km/h 70 % 0 mm
01:44 12.2 °C 6.8 °C 1022.9 hPa North 22.2 km/h 7.1 km/h 70 % 0 mm
01:49 12.1 °C 6.8 °C 1022.9 hPa NNE 22.2 km/h 19.2 km/h 70 % 0 mm
01:54 12.1 °C 6.8 °C 1023.2 hPa North 22.2 km/h 16.7 km/h 70 % 0 mm
01:59 12.1 °C 6.8 °C 1022.9 hPa NNE 22.2 km/h 13.4 km/h 70 % 0 mm
02:04 12.2 °C 6.8 °C 1022.9 hPa NNE 20.4 km/h 14.6 km/h 70 % 0 mm
02:09 12.2 °C 6.8 °C 1022.9 hPa NNE 25.9 km/h 12.6 km/h 70 % 0 mm
02:14 12.2 °C 6.9 °C 1022.9 hPa NNE 29.6 km/h 15 km/h 70 % 0 mm
02:19 12.2 °C 6.9 °C 1022.9 hPa NNE 18.5 km/h 14.5 km/h 70 % 0 mm
02:24 12.3 °C 6.9 °C 1022.9 hPa NNE 22.2 km/h 11.6 km/h 70 % 0 mm
02:29 12.3 °C 6.8 °C 1022.9 hPa North 20.9 km/h 10.9 km/h 69 % 0 mm
02:34 12.3 °C 6.8 °C 1022.9 hPa NNE 20.9 km/h 11.3 km/h 69 % 0 mm
02:39 12.3 °C 6.8 °C 1022.6 hPa NNE 25.9 km/h 9.8 km/h 69 % 0 mm
02:44 12.3 °C 6.8 °C 1022.6 hPa NNE 25.9 km/h 14.2 km/h 69 % 0 mm
02:49 12.2 °C 6.7 °C 1022.6 hPa NNE 18.5 km/h 11.7 km/h 69 % 0 mm
02:54 12.2 °C 6.7 °C 1022.6 hPa NNE 20.9 km/h 17.9 km/h 69 % 0 mm
02:59 12.2 °C 6.7 °C 1022.6 hPa NNE 18.5 km/h 13.2 km/h 69 % 0 mm
03:04 12.1 °C 6.8 °C 1022.6 hPa North 29 km/h 17.1 km/h 70 % 0 mm
03:09 12 °C 6.7 °C 1022.6 hPa NNE 18.5 km/h 14.6 km/h 70 % 0 mm
03:14 11.9 °C 6.7 °C 1022.6 hPa NNE 22.2 km/h 13.5 km/h 70 % 0 mm
03:19 11.9 °C 6.8 °C 1022.6 hPa NNE 18.5 km/h 12.9 km/h 71 % 0 mm
03:24 11.9 °C 6.8 °C 1022.6 hPa North 29.6 km/h 18.8 km/h 71 % 0 mm
03:29 12 °C 6.7 °C 1022.6 hPa North 27.8 km/h 21.4 km/h 70 % 0 mm
03:34 12 °C 6.7 °C 1022.6 hPa NNE 24.1 km/h 12.6 km/h 70 % 0 mm
03:39 12 °C 6.7 °C 1022.6 hPa NNE 18.5 km/h 16.3 km/h 70 % 0 mm
03:44 11.9 °C 6.7 °C 1022.6 hPa NNE 16.1 km/h 12.7 km/h 70 % 0 mm
03:49 11.8 °C 6.7 °C 1022.6 hPa NNE 24.1 km/h 15.6 km/h 71 % 0 mm
03:54 11.6 °C 6.5 °C 1022.6 hPa North 19.3 km/h 15.4 km/h 71 % 0 mm
03:59 11.5 °C 6.6 °C 1022.2 hPa NNE 18.5 km/h 10 km/h 72 % 0 mm
04:04 11.4 °C 6.7 °C 1022.2 hPa North 18.5 km/h 16.3 km/h 73 % 0 mm
04:09 11.3 °C 6.6 °C 1022.2 hPa North 22.2 km/h 16.4 km/h 73 % 0 mm
04:14 11.2 °C 6.5 °C 1022.2 hPa NNE 18.5 km/h 17.2 km/h 73 % 0 mm
04:19 11.1 °C 6.6 °C 1022.2 hPa North 16.7 km/h 9.7 km/h 74 % 0 mm
04:24 10.9 °C 6.5 °C 1022.2 hPa NNE 13 km/h 9.5 km/h 74 % 0 mm
04:29 10.9 °C 6.6 °C 1022.2 hPa NNE 13 km/h 13 km/h 75 % 0 mm
04:34 11 °C 6.7 °C 1022.2 hPa NNE 18.5 km/h 13.5 km/h 75 % 0 mm
04:39 11.2 °C 6.9 °C 1022.2 hPa NNE 20.9 km/h 14.2 km/h 75 % 0 mm
04:44 11.3 °C 6.8 °C 1022.2 hPa NNE 24.1 km/h 16.3 km/h 74 % 0 mm
04:49 11.2 °C 6.8 °C 1022.2 hPa NNE 31.5 km/h 17.7 km/h 74 % 0 mm
04:54 11.2 °C 6.7 °C 1021.9 hPa NNE 18.5 km/h 14 km/h 74 % 0 mm
04:59 11.1 °C 6.7 °C 1021.9 hPa NNE 20.4 km/h 10.9 km/h 74 % 0 mm
05:04 11.1 °C 6.7 °C 1021.9 hPa NNE 18.5 km/h 15.8 km/h 74 % 0 mm
05:09 11.1 °C 6.6 °C 1022.2 hPa NNE 18.5 km/h 13.5 km/h 74 % 0 mm
05:14 11 °C 6.7 °C 1022.2 hPa NNE 18.5 km/h 8.4 km/h 75 % 0 mm
05:19 11.1 °C 6.8 °C 1022.2 hPa North 16.7 km/h 7.4 km/h 75 % 0 mm
05:24 11.1 °C 6.8 °C 1022.2 hPa North 16.1 km/h 4.7 km/h 75 % 0 mm
05:29 11.2 °C 6.9 °C 1022.2 hPa North 18.5 km/h 12.6 km/h 75 % 0 mm
05:34 11.3 °C 6.8 °C 1022.2 hPa North 16.7 km/h 9 km/h 74 % 0 mm
05:39 11.3 °C 6.9 °C 1022.2 hPa North 27.8 km/h 20.3 km/h 74 % 0 mm
05:44 11.4 °C 6.9 °C 1022.2 hPa North 31.5 km/h 18 km/h 74 % 0 mm
05:49 11.4 °C 6.9 °C 1022.2 hPa North 20.4 km/h 17.9 km/h 74 % 0 mm
05:54 11.4 °C 6.9 °C 1022.2 hPa North 25.9 km/h 16.9 km/h 74 % 0 mm
05:59 11.4 °C 7.3 °C 1022.2 hPa North 24.1 km/h 15.9 km/h 76 % 0 mm
06:04 11.4 °C 6.9 °C 1022.2 hPa NNE 24.1 km/h 20.1 km/h 74 % 0 mm
06:09 11.5 °C 7 °C 1022.2 hPa NNE 22.2 km/h 12.1 km/h 74 % 0 mm
06:14 11.5 °C 7 °C 1022.2 hPa North 20.4 km/h 12.7 km/h 74 % 0 mm
06:19 11.5 °C 7 °C 1022.2 hPa North 20.9 km/h 13.7 km/h 74 % 0 mm
06:24 11.6 °C 6.9 °C 1022.6 hPa NNE 18.5 km/h 11.6 km/h 73 % 0 mm
06:29 11.6 °C 6.9 °C 1022.6 hPa North 27.8 km/h 12.7 km/h 73 % 0 mm
06:34 11.6 °C 6.9 °C 1022.6 hPa NNW 27.8 km/h 13.4 km/h 73 % 0 mm
06:39 11.5 °C 6.8 °C 1022.6 hPa North 13 km/h 12.9 km/h 73 % 0 mm
06:44 11.4 °C 6.9 °C 1022.2 hPa North 14.8 km/h 10 km/h 74 % 0 mm
06:49 11.3 °C 6.9 °C 1022.2 hPa North 13 km/h 8.7 km/h 74 % 0 mm
06:54 11.3 °C 6.8 °C 1022.6 hPa North 11.1 km/h 7.6 km/h 74 % 0 mm
06:59 11.3 °C 6.8 °C 1022.6 hPa North 18.5 km/h 7.2 km/h 74 % 0 mm
07:04 11.3 °C 6.9 °C 1022.6 hPa NNW 9.3 km/h 8 km/h 74 % 0 mm
07:09 11.4 °C 6.9 °C 1022.6 hPa North 13 km/h 10.9 km/h 74 % 0 mm
07:14 11.4 °C 6.8 °C 1022.6 hPa NNW 20.4 km/h 12.2 km/h 73 % 0 mm
07:19 11.5 °C 6.8 °C 1022.6 hPa North 18.5 km/h 8.2 km/h 73 % 0 mm
07:24 11.5 °C 6.8 °C 1022.6 hPa NNW 20.9 km/h 12.6 km/h 73 % 0 mm
07:29 11.5 °C 6.8 °C 1022.6 hPa NNW 18.5 km/h 9.7 km/h 73 % 0 mm
07:34 11.5 °C 6.8 °C 1022.6 hPa North 27.8 km/h 12.7 km/h 73 % 0 mm
07:39 11.4 °C 6.8 °C 1022.6 hPa North 20.4 km/h 10.1 km/h 73 % 0 mm
07:44 11.4 °C 6.7 °C 1022.6 hPa North 20.4 km/h 13 km/h 73 % 0 mm
07:49 11.3 °C 6.7 °C 1022.6 hPa North 14.8 km/h 11.3 km/h 73 % 0 mm
07:54 11.3 °C 6.7 °C 1022.6 hPa North 14.8 km/h 9 km/h 73 % 0 mm
07:59 11.3 °C 6.6 °C 1022.9 hPa NNW 13 km/h 10.5 km/h 73 % 0 mm
08:04 11.2 °C 6.6 °C 1022.9 hPa NNW 13 km/h 8.7 km/h 73 % 0 mm
08:09 11.2 °C 6.8 °C 1022.9 hPa NNW 14.8 km/h 7.7 km/h 74 % 0 mm
08:14 11.2 °C 6.8 °C 1022.9 hPa North 12.9 km/h 6.1 km/h 74 % 0 mm
08:19 11.2 °C 6.8 °C 1022.9 hPa NNW 16.7 km/h 9.2 km/h 74 % 0 mm
08:24 11.3 °C 6.8 °C 1022.9 hPa NNW 9.3 km/h 8.2 km/h 74 % 0 mm
08:29 11.3 °C 6.9 °C 1022.9 hPa North 20.4 km/h 9.3 km/h 74 % 0 mm
08:34 11.4 °C 6.9 °C 1022.9 hPa North 18.5 km/h 12.1 km/h 74 % 0 mm
08:39 11.4 °C 6.9 °C 1022.9 hPa North 18.5 km/h 9.2 km/h 74 % 0 mm
08:44 11.4 °C 7.3 °C 1022.9 hPa North 11.3 km/h 7.4 km/h 76 % 0 mm
08:49 11.5 °C 7 °C 1022.9 hPa NW 11.3 km/h 7.6 km/h 74 % 0 mm
08:54 11.5 °C 6.8 °C 1022.6 hPa North 9.3 km/h 8 km/h 73 % 0 mm
08:59 11.5 °C 6.8 °C 1022.6 hPa North 14.8 km/h 9.8 km/h 73 % 0 mm
09:04 11.6 °C 7.1 °C 1022.6 hPa North 14.8 km/h 11.7 km/h 74 % 0 mm
09:09 11.6 °C 6.9 °C 1022.6 hPa NNW 20.4 km/h 9.8 km/h 73 % 0 mm
09:14 11.6 °C 6.9 °C 1022.6 hPa NNW 14.8 km/h 11.6 km/h 73 % 0 mm
09:19 11.6 °C 6.9 °C 1021.9 hPa NNE 14.8 km/h 11.3 km/h 73 % 0 mm
09:24 11.7 °C 7 °C 1021.9 hPa North 14.8 km/h 10.8 km/h 73 % 0 mm
09:29 11.7 °C 7.1 °C 1021.9 hPa North 22.2 km/h 10 km/h 73 % 0 mm
09:34 11.8 °C 6.9 °C 1021.9 hPa NNE 20.4 km/h 17.5 km/h 72 % 0 mm
09:39 11.8 °C 6.9 °C 1021.9 hPa North 22.2 km/h 13.4 km/h 72 % 0 mm
09:44 11.8 °C 6.7 °C 1021.9 hPa NNE 29.6 km/h 12.2 km/h 71 % 0 mm
09:49 11.7 °C 6.8 °C 1021.9 hPa North 29.6 km/h 17.1 km/h 72 % 0 mm
09:54 11.8 °C 6.9 °C 1021.6 hPa NNE 19.3 km/h 18.2 km/h 72 % 0 mm
09:59 11.8 °C 6.9 °C 1021.9 hPa North 27.8 km/h 12.1 km/h 72 % 0 mm
10:04 11.8 °C 6.9 °C 1021.9 hPa North 20.4 km/h 13.5 km/h 72 % 0 mm
10:09 11.9 °C 7 °C 1021.9 hPa NNE 20.4 km/h 10.9 km/h 72 % 0 mm
10:14 12.2 °C 7.3 °C 1021.6 hPa NNE 18.5 km/h 12.9 km/h 72 % 0 mm
10:19 12.5 °C 7.4 °C 1021.6 hPa NNE 18.5 km/h 8.4 km/h 71 % 0 mm
10:24 12.7 °C 7.4 °C 1021.6 hPa NNE 22.2 km/h 12.9 km/h 70 % 0 mm
10:29 12.7 °C 7.3 °C 1021.2 hPa NNE 20.4 km/h 14.6 km/h 70 % 0 mm
10:34 13.1 °C 7.5 °C 1021.2 hPa North 24.1 km/h 19 km/h 69 % 0 mm
10:39 13.3 °C 7.3 °C 1021.2 hPa NNW 18.5 km/h 13.7 km/h 67 % 0 mm
10:44 13.3 °C 7.3 °C 1021.2 hPa North 27.8 km/h 13.2 km/h 67 % 0 mm
10:49 13.3 °C 7.3 °C 1021.2 hPa North 20.4 km/h 15.6 km/h 67 % 0 mm
10:54 13.3 °C 7.3 °C 1021.2 hPa NNE 20.4 km/h 14.5 km/h 67 % 0 mm
10:59 13.4 °C 7.2 °C 1021.2 hPa NNE 31.5 km/h 14.2 km/h 66 % 0 mm
11:04 13.3 °C 7.1 °C 1020.9 hPa North 13 km/h 9 km/h 66 % 0 mm
11:09 13.3 °C 7.1 °C 1020.9 hPa NNE 25.7 km/h 13.5 km/h 66 % 0 mm
11:14 13.2 °C 7 °C 1020.5 hPa North 22.5 km/h 13.4 km/h 66 % 0 mm
11:19 13.3 °C 7.3 °C 1020.2 hPa North 20.9 km/h 9.3 km/h 67 % 0 mm
11:24 13.5 °C 7.1 °C 1019.9 hPa NNE 24.1 km/h 9.7 km/h 65 % 0 mm
11:29 14 °C 7.3 °C 1019.9 hPa NE 33.3 km/h 14.2 km/h 64 % 0 mm
11:34 14.2 °C 7.3 °C 1019.9 hPa NNE 29.6 km/h 20.9 km/h 63 % 0 mm
11:39 14.4 °C 7.2 °C 1019.9 hPa North 27.8 km/h 20 km/h 62 % 0 mm
11:44 14.3 °C 7.1 °C 1019.5 hPa North 37 km/h 19.3 km/h 62 % 0 mm
11:49 14.3 °C 7.3 °C 1019.5 hPa NNE 31.5 km/h 20.4 km/h 63 % 0 mm
11:54 14.5 °C 7.3 °C 1019.5 hPa North 38.9 km/h 24.1 km/h 62 % 0 mm
11:59 14.6 °C 7.2 °C 1019.5 hPa North 35.2 km/h 28.5 km/h 61 % 0 mm
12:04 14.5 °C 7.3 °C 1019.5 hPa North 29.6 km/h 17.1 km/h 62 % 0 mm
12:09 14.4 °C 7.2 °C 1019.2 hPa NNE 37 km/h 26.2 km/h 62 % 0 mm
12:14 14.3 °C 7.3 °C 1018.8 hPa NNE 35.2 km/h 24.1 km/h 63 % 0 mm
12:19 14.2 °C 7.3 °C 1018.8 hPa NNE 35.2 km/h 18.5 km/h 63 % 0 mm
12:24 14.1 °C 7.4 °C 1018.8 hPa North 25.9 km/h 14.6 km/h 64 % 0 mm
12:29 14.3 °C 7.3 °C 1018.8 hPa NNE 31.5 km/h 22.5 km/h 63 % 0 mm
12:34 14.3 °C 7.3 °C 1018.8 hPa NNE 27.8 km/h 13.7 km/h 63 % 0 mm
12:39 14.3 °C 7.1 °C 1019.2 hPa NNW 44.4 km/h 20.8 km/h 62 % 0 mm
12:44 14.6 °C 7.3 °C 1019.2 hPa North 29.6 km/h 11.9 km/h 62 % 0 mm
12:49 14.8 °C 7.4 °C 1019.2 hPa North 25.9 km/h 18 km/h 61 % 0 mm
12:54 14.9 °C 7.5 °C 1019.5 hPa North 27.4 km/h 15.1 km/h 61 % 0 mm
12:59 14.9 °C 7.2 °C 1019.2 hPa North 27.8 km/h 17.4 km/h 60 % 0 mm
13:04 14.9 °C 7 °C 1019.5 hPa NNW 40.7 km/h 24.1 km/h 59 % 0 mm
13:09 14.9 °C 6.9 °C 1019.2 hPa North 29.6 km/h 23.5 km/h 59 % 0 mm
13:14 14.9 °C 6.9 °C 1018.8 hPa North 31.5 km/h 20.6 km/h 59 % 0 mm
13:19 14.8 °C 6.8 °C 1018.8 hPa NNW 25.9 km/h 17.7 km/h 59 % 0 mm
13:24 14.7 °C 6.8 °C 1018.8 hPa North 31.5 km/h 18.7 km/h 59 % 0 mm
13:29 14.7 °C 6.7 °C 1018.5 hPa North 38.9 km/h 23.5 km/h 59 % 0 mm
13:34 14.7 °C 7 °C 1018.5 hPa NNW 38.9 km/h 20 km/h 60 % 0 mm
13:39 14.8 °C 7.1 °C 1018.2 hPa North 40.7 km/h 24 km/h 60 % 0 mm
13:44 14.8 °C 7.1 °C 1018.2 hPa North 33.3 km/h 19.3 km/h 60 % 0 mm
13:49 14.9 °C 7.2 °C 1018.2 hPa NNW 29.6 km/h 21.6 km/h 60 % 0 mm
13:54 15.1 °C 7.4 °C 1018.2 hPa North 22.5 km/h 16.4 km/h 60 % 0 mm
13:59 15.1 °C 7.4 °C 1018.2 hPa North 35.2 km/h 19.6 km/h 60 % 0 mm
14:04 15.2 °C 7.2 °C 1018.2 hPa North 24.1 km/h 20.6 km/h 59 % 0 mm
14:09 15.3 °C 7.3 °C 1018.2 hPa North 35.2 km/h 21.6 km/h 59 % 0 mm
14:14 15.2 °C 7.2 °C 1018.2 hPa NNE 30.6 km/h 25.4 km/h 59 % 0 mm
14:19 15 °C 7.1 °C 1017.8 hPa NNE 24.1 km/h 19.6 km/h 59 % 0 mm
14:24 15 °C 7.1 °C 1017.8 hPa North 31.5 km/h 18.7 km/h 59 % 0 mm
14:29 14.9 °C 6.9 °C 1017.8 hPa North 24.1 km/h 20.4 km/h 59 % 0 mm
14:34 14.7 °C 7.1 °C 1017.8 hPa North 24.1 km/h 19.6 km/h 60 % 0 mm
14:39 14.7 °C 7 °C 1017.8 hPa North 31.5 km/h 21.1 km/h 60 % 0 mm
14:44 14.7 °C 7 °C 1017.8 hPa North 40.7 km/h 20.6 km/h 60 % 0 mm
14:49 14.7 °C 7.1 °C 1017.8 hPa North 31.5 km/h 17.9 km/h 60 % 0 mm
14:54 14.8 °C 7.1 °C 1017.8 hPa North 24.1 km/h 14.3 km/h 60 % 0 mm
14:59 14.8 °C 7.1 °C 1017.8 hPa North 25.9 km/h 19.5 km/h 60 % 0 mm
15:04 14.8 °C 7.1 °C 1017.8 hPa North 25.9 km/h 14 km/h 60 % 0 mm
15:09 14.8 °C 7.1 °C 1017.8 hPa NNE 29.6 km/h 16.9 km/h 60 % 0 mm
15:14 14.7 °C 7.1 °C 1017.8 hPa North 31.5 km/h 14.5 km/h 60 % 0 mm
15:19 14.7 °C 7 °C 1017.5 hPa North 31.5 km/h 20.4 km/h 60 % 0 mm
15:24 14.6 °C 6.9 °C 1017.8 hPa NNE 25.9 km/h 14.8 km/h 60 % 0 mm
15:29 14.6 °C 7.2 °C 1017.8 hPa NNE 31.5 km/h 18.3 km/h 61 % 0 mm
15:34 14.6 °C 6.9 °C 1017.5 hPa North 33.3 km/h 17.4 km/h 60 % 0 mm
15:39 14.7 °C 7 °C 1017.5 hPa North 33.3 km/h 21.4 km/h 60 % 0 mm
15:44 14.8 °C 7.1 °C 1017.5 hPa NNE 31.5 km/h 27.5 km/h 60 % 0 mm
15:49 14.8 °C 7.1 °C 1017.5 hPa NNW 31.5 km/h 24.9 km/h 60 % 0 mm
15:54 14.7 °C 7.1 °C 1017.5 hPa North 33.3 km/h 14.5 km/h 60 % 0 mm
15:59 14.7 °C 7 °C 1017.2 hPa North 42.6 km/h 21.2 km/h 60 % 0 mm
16:04 14.6 °C 7.1 °C 1017.2 hPa NNE 18.5 km/h 12.6 km/h 61 % 0 mm
16:09 14.6 °C 6.6 °C 1017.2 hPa North 31.5 km/h 15.8 km/h 59 % 0 mm
16:14 14.6 °C 6.6 °C 1017.2 hPa North 31.5 km/h 19.6 km/h 59 % 0 mm
16:19 14.5 °C 6.6 °C 1017.2 hPa North 25.9 km/h 13 km/h 59 % 0 mm
16:24 14.4 °C 6.5 °C 1017.2 hPa North 27.8 km/h 20.6 km/h 59 % 0 mm
16:29 14.4 °C 6.8 °C 1017.2 hPa North 29 km/h 13.4 km/h 60 % 0 mm
16:34 14.4 °C 6.7 °C 1017.2 hPa North 25.9 km/h 12.9 km/h 60 % 0 mm
16:39 14.4 °C 6.7 °C 1016.8 hPa North 27.8 km/h 10.1 km/h 60 % 0 mm
16:44 14.2 °C 6.8 °C 1016.5 hPa NNE 24.1 km/h 13.8 km/h 61 % 0 mm
16:49 14.1 °C 6.9 °C 1016.5 hPa North 31.5 km/h 17.2 km/h 62 % 0 mm
16:54 14 °C 6.8 °C 1016.5 hPa North 31.5 km/h 18 km/h 62 % 0 mm
16:59 13.9 °C 6.9 °C 1016.5 hPa North 25.7 km/h 14.6 km/h 63 % 0 mm
17:04 13.8 °C 6.8 °C 1016.5 hPa NNE 33.3 km/h 15.9 km/h 63 % 0 mm
17:09 13.8 °C 7.1 °C 1016.5 hPa North 22.2 km/h 16.6 km/h 64 % 0 mm
17:14 13.7 °C 7.1 °C 1016.5 hPa North 20.4 km/h 15.1 km/h 64 % 0 mm
17:19 13.7 °C 7.1 °C 1016.5 hPa North 20.9 km/h 15.6 km/h 64 % 0 mm
17:24 13.7 °C 7.1 °C 1016.5 hPa North 31.5 km/h 13.8 km/h 64 % 0 mm
17:29 13.6 °C 7.2 °C 1016.5 hPa NNE 22.2 km/h 12.6 km/h 65 % 0 mm
17:34 13.5 °C 7.1 °C 1016.5 hPa North 24.1 km/h 7.6 km/h 65 % 0 mm
17:39 13.4 °C 7.2 °C 1016.5 hPa North 18.5 km/h 13 km/h 66 % 0 mm
17:44 13.3 °C 7.1 °C 1016.1 hPa NNE 35.2 km/h 18.7 km/h 66 % 0 mm
17:49 13.4 °C 7.2 °C 1016.1 hPa NNE 31.5 km/h 15.1 km/h 66 % 0 mm
17:54 13.3 °C 7.1 °C 1015.8 hPa North 20.4 km/h 12.6 km/h 66 % 0 mm
17:59 13.3 °C 7.3 °C 1016.1 hPa North 18.5 km/h 13.5 km/h 67 % 0 mm
18:04 13.3 °C 7.1 °C 1016.1 hPa North 24.1 km/h 13.5 km/h 66 % 0 mm
18:09 13.3 °C 7.1 °C 1016.1 hPa North 20.4 km/h 15.3 km/h 66 % 0 mm
18:14 13.3 °C 7.1 °C 1016.1 hPa North 27.8 km/h 15.4 km/h 66 % 0 mm
18:19 13.3 °C 7.1 °C 1015.8 hPa North 31.5 km/h 14.3 km/h 66 % 0 mm
18:24 13.3 °C 7.3 °C 1015.8 hPa NNE 38.9 km/h 24 km/h 67 % 0 mm
18:29 13.3 °C 7.3 °C 1015.8 hPa NNW 35.2 km/h 24.1 km/h 67 % 0 mm
18:34 13.3 °C 7.3 °C 1015.8 hPa NNE 33.3 km/h 22 km/h 67 % 0 mm
18:39 13.4 °C 7.2 °C 1016.1 hPa North 25.9 km/h 18.2 km/h 66 % 0 mm
18:44 13.4 °C 7.2 °C 1016.1 hPa NNE 38.9 km/h 18.5 km/h 66 % 0 mm
18:49 13.6 °C 7.4 °C 1016.1 hPa North 31.5 km/h 24.5 km/h 66 % 0 mm
18:54 13.7 °C 7.2 °C 1016.1 hPa NE 27.8 km/h 20.4 km/h 65 % 0 mm
18:59 13.7 °C 7.3 °C 1016.1 hPa North 27.8 km/h 16.7 km/h 65 % 0 mm
19:04 13.7 °C 7.3 °C 1016.1 hPa North 31.5 km/h 21.6 km/h 65 % 0 mm
19:09 13.8 °C 7.4 °C 1016.1 hPa North 27.8 km/h 20 km/h 65 % 0 mm
19:14 13.8 °C 7.1 °C 1016.1 hPa North 25.9 km/h 19.3 km/h 64 % 0 mm
19:19 13.8 °C 7.1 °C 1016.1 hPa North 31.5 km/h 20.1 km/h 64 % 0 mm
19:24 13.9 °C 7.2 °C 1016.5 hPa North 29.6 km/h 20.6 km/h 64 % 0 mm
19:29 13.9 °C 7.2 °C 1016.5 hPa North 24.1 km/h 15.1 km/h 64 % 0 mm
19:34 13.9 °C 7.2 °C 1016.5 hPa NNE 27.8 km/h 18.7 km/h 64 % 0 mm
19:39 14 °C 7.1 °C 1016.1 hPa NNE 31.5 km/h 19 km/h 63 % 0 mm
19:44 14 °C 7.1 °C 1016.1 hPa North 35.2 km/h 18.8 km/h 63 % 0 mm
19:49 14 °C 7.1 °C 1016.5 hPa NNW 20.4 km/h 15.8 km/h 63 % 0 mm
19:54 13.9 °C 7 °C 1016.5 hPa North 22.2 km/h 14.3 km/h 63 % 0 mm
19:59 14 °C 7.1 °C 1016.1 hPa North 24.1 km/h 23.3 km/h 63 % 0 mm
20:04 14.1 °C 7.1 °C 1016.1 hPa NW 29 km/h 19.6 km/h 63 % 0 mm
20:09 14.1 °C 7.2 °C 1016.1 hPa North 29.6 km/h 20.1 km/h 63 % 0 mm
20:14 14.1 °C 7.2 °C 1016.1 hPa North 33.3 km/h 19 km/h 63 % 0 mm
20:19 14.2 °C 7.2 °C 1016.1 hPa NE 20.9 km/h 16.3 km/h 63 % 0 mm
20:24 14.2 °C 7.2 °C 1016.1 hPa NNE 35.4 km/h 22.9 km/h 63 % 0 mm
20:29 14.1 °C 7.2 °C 1016.1 hPa North 22.2 km/h 11.9 km/h 63 % 0 mm
20:34 14.2 °C 7.2 °C 1016.1 hPa NNW 22.2 km/h 11.9 km/h 63 % 0 mm
20:39 14.2 °C 7.1 °C 1016.1 hPa North 27.8 km/h 17.7 km/h 62 % 0 mm
20:44 14.2 °C 7.1 °C 1016.1 hPa North 25.9 km/h 15.8 km/h 62 % 0 mm
20:49 14.3 °C 7.1 °C 1016.1 hPa North 27.8 km/h 13.2 km/h 62 % 0 mm
20:54 14.2 °C 7.2 °C 1016.1 hPa North 27.8 km/h 17.4 km/h 63 % 0 mm
20:59 14.1 °C 7.2 °C 1016.1 hPa North 19.3 km/h 16.1 km/h 63 % 0 mm
21:04 14.1 °C 7.1 °C 1016.1 hPa North 18.5 km/h 10.1 km/h 63 % 0 mm
21:09 14 °C 7.1 °C 1016.1 hPa NNE 27.8 km/h 17.4 km/h 63 % 0 mm
21:14 14 °C 7.1 °C 1016.1 hPa North 20.4 km/h 11.3 km/h 63 % 0 mm
21:19 14 °C 7.1 °C 1016.1 hPa North 20.9 km/h 16.9 km/h 63 % 0 mm
21:24 14.1 °C 7.1 °C 1016.5 hPa North 29.6 km/h 13.4 km/h 63 % 0 mm
21:29 14.1 °C 7.2 °C 1016.1 hPa North 31.5 km/h 17.2 km/h 63 % 0 mm
21:34 14.1 °C 7.2 °C 1016.1 hPa NNW 29 km/h 15.6 km/h 63 % 0 mm
21:39 14.2 °C 7.2 °C 1016.1 hPa North 29.6 km/h 21.7 km/h 63 % 0 mm
21:44 14.2 °C 7.1 °C 1016.1 hPa North 24.1 km/h 14 km/h 62 % 0 mm
21:49 14.2 °C 7 °C 1016.1 hPa NNW 27.4 km/h 22.5 km/h 62 % 0 mm
21:54 14.2 °C 7 °C 1016.1 hPa North 31.5 km/h 13.5 km/h 62 % 0 mm
21:59 14.2 °C 7.2 °C 1016.1 hPa North 32.2 km/h 12.9 km/h 63 % 0 mm
22:04 14.1 °C 7.1 °C 1016.1 hPa NNW 24.1 km/h 15.9 km/h 63 % 0 mm
22:09 14 °C 7.1 °C 1015.8 hPa North 29.6 km/h 19.2 km/h 63 % 0 mm
22:14 14 °C 7.1 °C 1015.8 hPa North 31.5 km/h 16.9 km/h 63 % 0 mm
22:19 13.9 °C 7.2 °C 1015.8 hPa North 18.5 km/h 13.7 km/h 64 % 0 mm
22:24 13.9 °C 7.2 °C 1015.8 hPa North 20.9 km/h 15 km/h 64 % 0 mm
22:29 14.1 °C 7.1 °C 1016.5 hPa NNW 31.5 km/h 19.6 km/h 63 % 0 mm
22:34 14 °C 7.3 °C 1016.8 hPa North 27.8 km/h 21.9 km/h 64 % 0 mm
22:39 13.6 °C 7.8 °C 1017.2 hPa NNW 57.5 km/h 31.5 km/h 68 % 0 mm
22:44 12.7 °C 7.6 °C 1017.2 hPa NW 53.8 km/h 33.8 km/h 71 % 0 mm
22:49 12.3 °C 7.8 °C 1016.8 hPa North 38.9 km/h 25.9 km/h 74 % 0 mm
22:54 12 °C 7.7 °C 1017.2 hPa North 40.7 km/h 28.2 km/h 75 % 0 mm
22:59 11.7 °C 8 °C 1017.2 hPa NW 32.2 km/h 25.1 km/h 78 % 0 mm
23:04 11.6 °C 8.1 °C 1017.2 hPa NNW 29.6 km/h 18 km/h 79 % 0 mm
23:09 11.4 °C 8.1 °C 1017.2 hPa NNW 22.5 km/h 20.8 km/h 80 % 0 mm
23:14 11.3 °C 8 °C 1016.8 hPa NNW 37 km/h 16.1 km/h 80 % 0 mm
23:19 11.3 °C 7.9 °C 1016.8 hPa North 22.5 km/h 16.6 km/h 80 % 0 mm
23:24 11.2 °C 8.1 °C 1016.8 hPa NNW 31.5 km/h 12.2 km/h 81 % 0 mm
23:29 11.2 °C 8 °C 1016.8 hPa NNW 22.2 km/h 15.9 km/h 81 % 0 mm
23:34 11.1 °C 7.9 °C 1016.8 hPa NW 25.7 km/h 12.9 km/h 81 % 0 mm
23:39 11 °C 8.1 °C 1016.8 hPa NW 25.9 km/h 13.5 km/h 82 % 0 mm
23:44 11 °C 8.1 °C 1016.8 hPa North 27.8 km/h 15.3 km/h 82 % 0 mm
23:49 11 °C 8.1 °C 1016.8 hPa NNW 22.2 km/h 16.4 km/h 82 % 0 mm
23:54 11 °C 8.1 °C 1017.2 hPa NW 18.5 km/h 11.6 km/h 82 % 0 mm
23:59 10.9 °C 8 °C 1017.2 hPa North 22.2 km/h 15.1 km/h 82 % 0 mm
Ararat Weather
Compliments of Weather Underground - 2.25 mb
Click here to send mail.


ABOUT

Live weather data from Ararat, Victoria, Australia, 3377
Data uploaded from Cumulus every 5 minutes to Weather Underground.
This site then downloads the raw data for formatting and display.
Metric and imperial data can be displayed. Graphs and historical data available.
Includes Sun and Moon times and rain image live from BOM.

Check out Ararat Weather on Facebook, Twitter and Google +

Help support ongoing costs by checking out the ads





Follow @AraratWeather